Change the Weather History Date:

Sunday, June 8, 2014

  Actual Average Record
Temperature  
Mean Temperature 80 °F -  
Max Temperature 87 °F 89 °F 94 °F (1981)
Min Temperature 75 °F 72 °F 62 °F (1975)
Cooling Degree Days 16    
Growing Degree Days 30 (Base 50)    
Moisture  
Dew Point 71 °F    
Average Humidity 73    
Maximum Humidity 79    
Minimum Humidity 62    
Precipitation  
Precipitation 0.00 in - - ()
Sea Level Pressure  
Sea Level Pressure 29.98 in    
Wind  
Wind Speed 6 mph (SSW)    
Max Wind Speed 16 mph    
Max Gust Speed 23 mph    
Visibility 10 miles    
Events Rain , Thunderstorm    
Averages and records for this station are not official NWS values.
T = Trace of Precipitation, MM = Missing Value Source: NWS Daily Summary

Daily Weather History Graph

Daily Weather History Graph

Search for Another Location

Airport or City:

Trip Planner

Search our weather history database for the weather conditions in past years. The results will help you decide how hot, cold, wet, or windy it might be!

Date:

Astronomy

Jun. 08, 2014 Rise Set
Actual Time 6:27 AM EDT 8:11 PM EDT
Civil Twilight 6:01 AM EDT 8:37 PM EDT
Nautical Twilight 5:30 AM EDT 9:09 PM EDT
Astronomical Twilight 4:57 AM EDT 9:42 PM EDT
Moon 3:51 PM EDT (6/8) 2:53 AM EDT (6/8)
Length of Visible Light 14h 36m
Length of Day
13h 44m
Waxing Gibbous, 77% of the Moon is Illuminated
Jun 8
Waxing Gibbous
Jun 13
Full
Jun 19
Last Quarter
Jun 27
New
Jul 5
First Quarter

Hourly Weather History & Observations

Time (EDT) Temp. Heat Index Dew Point Humidity Pressure Visibility Wind Dir Wind Speed Gust Speed Precip Events Conditions
12:53 AM 82.0 °F 86.7 °F 72.0 °F 71% 29.99 in 10.0 mi SSW 4.6 mph - N/A   Mostly Cloudy
1:53 AM 82.0 °F 87.4 °F 73.0 °F 74% 29.99 in 10.0 mi Calm Calm - N/A   Mostly Cloudy
2:15 AM 79.0 °F - 71.1 °F 77% 29.99 in 10.0 mi North 16.1 mph 23.0 mph N/A   Mostly Cloudy
2:49 AM 75.2 °F - 66.2 °F 73% 29.97 in 10.0 mi North 6.9 mph - 0.00 in Rain Light Rain
2:53 AM 75.9 °F - 66.9 °F 74% 29.97 in 10.0 mi North 8.1 mph - 0.00 in Rain Light Rain
3:53 AM 77.0 °F - 69.1 °F 76% 29.96 in 10.0 mi Calm Calm - 0.00 in Rain Light Rain
4:53 AM 77.0 °F - 70.0 °F 79% 29.94 in 10.0 mi SW 4.6 mph - 0.00 in   Clear
5:53 AM 78.1 °F - 70.0 °F 76% 29.95 in 10.0 mi ESE 3.5 mph - N/A   Clear
6:53 AM 79.0 °F - 71.1 °F 77% 29.97 in 10.0 mi Calm Calm - N/A   Clear
7:53 AM 80.1 °F 83.6 °F 71.1 °F 74% 29.99 in 10.0 mi Calm Calm - N/A   Mostly Cloudy
8:53 AM 82.9 °F 88.0 °F 72.0 °F 69% 30.01 in 10.0 mi Calm Calm - N/A   Mostly Cloudy
9:53 AM 84.0 °F 89.6 °F 72.0 °F 67% 30.01 in 10.0 mi East 6.9 mph - N/A   Clear
10:53 AM 86.0 °F 93.0 °F 73.0 °F 65% 30.01 in 10.0 mi ENE 6.9 mph - N/A   Clear
11:53 AM 86.0 °F 93.8 °F 73.9 °F 67% 30.01 in 10.0 mi East 10.4 mph - N/A Thunderstorm Thunderstorm
12:53 PM 79.0 °F - 66.0 °F 64% 30.02 in 10.0 mi SSW 13.8 mph - N/A Thunderstorm Mostly Cloudy
1:53 PM 79.0 °F - 68.0 °F 69% 30.00 in 10.0 mi SSW 6.9 mph - N/A Thunderstorm Clear
2:14 PM 80.1 °F 82.3 °F 66.9 °F 64% 29.99 in 10.0 mi SSW 5.8 mph - N/A   Clear
2:53 PM 81.0 °F 83.3 °F 66.9 °F 62% 29.98 in 10.0 mi SSW 3.5 mph - N/A   Clear
4:53 PM 82.9 °F 89.4 °F 73.9 °F 74% 29.96 in 10.0 mi SSE 9.2 mph - N/A   Partly Cloudy
5:53 PM 82.9 °F 90.2 °F 75.0 °F 77% 29.94 in 10.0 mi South 9.2 mph - N/A   Clear
6:53 PM 82.0 °F 87.9 °F 73.9 °F 76% 29.96 in 10.0 mi SW 8.1 mph - N/A   Clear
7:53 PM 80.1 °F 83.6 °F 71.1 °F 74% 29.97 in 10.0 mi West 8.1 mph - N/A   Clear
8:53 PM 78.1 °F - 70.0 °F 76% 29.98 in 10.0 mi WSW 5.8 mph - N/A   Clear
9:53 PM 78.1 °F - 70.0 °F 76% 30.01 in 10.0 mi West 5.8 mph - N/A   Scattered Clouds
10:53 PM 77.0 °F - 70.0 °F 79% 30.01 in 10.0 mi West 3.5 mph - N/A   Clear
11:53 PM 77.0 °F - 70.0 °F 79% 30.02 in 8.0 mi WNW 4.6 mph - N/A   Clear